Wind_Speed
6 6 6 8 5 1 4 5 5 8 10 10 12 9 4 5 6 5 5 8 4 5 7 8 11 12 8 9 8 6 8 8 5 5 9 13 13 12 11 12 12 12 11 10 13 15 15 13 12 15 16 17 19 21 20 20 20 20 19 19 17 16 15 13 12 11 10 9 8 7 7 8 8 8 7 7 9 7 6 5 5 6 5 6 6 5
4 6 8 11 3 5 6 8 7 7 9 9 9 8 4 6 5 4 6 5 3 3 6 7 11 10 9 10 4 5 9 6 4 8 5 9 13 12 12 13 12 11 10 10 12 13 16 17 12 12 15 17 18 20 21 20 20 20 19 20 19 17 15 14 13 11 9 8 8 7 7 9 8 8 9 9 8 5 5 5 6 7 7 7 7 6
5 7 12 12 1 4 3 6 7 8 9 8 7 7 6 8 6 6 8 1 2 2 5 7 8 9 9 8 4 5 8 3 5 8 7 7 10 10 12 15 12 12 11 9 10 11 15 18 17 13 13 16 18 19 21 20 21 21 20 20 19 18 16 14 13 11 9 8 8 7 7 9 10 10 12 11 8 6 7 6 6 7 7 7 6 6
6 5 6 4 4 2 5 5 6 7 6 7 6 7 7 8 9 2 6 1 4 1 4 8 8 9 8 4 5 9 8 5 6 9 10 8 8 7 8 15 15 13 13 11 11 11 11 14 19 16 16 17 17 18 20 20 21 21 20 20 19 19 17 15 14 13 11 10 10 10 10 11 11 10 11 10 8 7 7 7 7 8 8 8 8 7
11 2 5 5 4 1 4 4 6 5 5 8 8 9 9 9 10 5 3 4 5 5 5 9 8 6 7 5 6 9 7 8 9 10 10 8 8 7 6 15 15 12 11 11 12 13 11 11 15 17 18 17 17 17 19 20 21 20 20 20 20 19 18 17 15 14 14 13 12 12 11 11 11 10 9 9 8 6 6 7 8 8 8 9 10 9
8 3 3 3 2 4 5 5 7 6 5 8 8 10 11 12 11 8 2 3 2 6 6 7 7 5 7 8 9 9 8 9 9 9 8 8 8 7 5 12 13 10 10 11 12 11 9 11 14 16 16 15 16 17 18 20 19 20 21 21 20 20 19 18 17 16 17 16 14 13 12 11 12 10 9 9 7 7 7 8 7 8 8 9 9 10
3 1 1 4 4 5 7 8 8 8 7 6 4 6 9 10 10 9 8 6 4 5 4 7 6 5 5 8 9 8 9 11 9 8 8 7 7 7 6 9 13 10 9 9 11 10 8 9 11 11 13 15 15 16 18 19 19 20 21 21 21 20 20 20 18 17 18 17 15 14 12 12 12 11 11 10 8 8 8 7 7 7 8 8 9 10
2 4 2 4 6 6 7 8 8 9 8 4 3 6 9 8 9 9 9 8 6 6 3 5 7 7 5 7 7 5 8 10 9 7 8 8 9 9 7 7 11 12 12 11 12 13 9 8 11 13 15 16 16 17 19 19 19 21 21 22 21 20 21 22 20 19 19 18 17 15 12 12 13 13 13 11 9 8 8 7 7 7 8 8 8 8
2 4 3 4 8 6 7 9 9 9 8 5 1 5 8 9 9 8 8 8 6 6 6 6 8 7 5 7 6 5 7 6 7 7 7 8 9 10 10 10 10 11 12 11 11 14 13 15 19 20 19 18 17 16 19 21 21 21 22 22 22 21 21 23 21 20 20 18 18 16 13 12 13 15 14 11 10 9 8 7 6 7 7 7 8 9
3 5 4 5 7 6 9 11 8 5 6 6 4 6 8 10 10 7 7 7 6 6 7 7 8 7 5 6 5 4 6 7 6 8 9 8 7 7 7 4 4 6 7 7 9 11 14 19 23 23 22 20 17 17 19 22 23 23 23 23 22 21 22 23 23 22 20 19 19 17 14 13 15 16 14 13 12 10 8 7 6 6 7 6 7 9
5 4 3 6 8 7 9 11 5 2 5 5 5 7 9 9 8 6 5 6 6 6 8 9 10 9 6 4 2 1 5 6 2 4 7 7 6 4 5 4 4 3 4 5 8 8 11 15 19 21 20 18 19 22 22 22 24 24 24 25 24 22 23 24 24 23 21 20 20 18 15 14 17 17 15 15 14 11 10 8 7 6 7 7 7 8
8 7 5 6 9 9 10 10 5 4 8 7 6 7 7 6 5 5 5 5 6 6 7 9 11 11 8 4 2 2 2 4 2 2 5 5 1 5 7 3 2 1 1 1 3 6 5 4 7 12 16 19 25 26 23 21 22 23 24 26 26 23 24 25 24 24 22 21 20 18 16 15 17 18 16 16 15 13 12 10 8 8 7 8 7 7
8 7 6 7 9 8 8 7 6 7 8 7 6 6 6 5 4 5 5 4 6 6 5 6 9 8 6 5 4 5 4 5 6 4 6 6 3 6 7 3 3 3 1 1 7 8 5 2 1 5 12 21 26 23 21 19 19 20 21 23 25 25 26 26 25 25 23 21 21 19 17 16 16 18 16 16 15 13 12 11 10 10 9 9 8 8
6 8 10 8 8 8 7 6 6 6 5 6 6 4 4 4 4 6 5 4 6 6 4 3 6 5 3 4 6 5 6 5 6 5 4 5 7 6 4 3 3 3 4 6 9 7 4 3 1 2 6 13 19 19 18 19 18 17 18 21 23 23 26 27 26 26 24 21 20 19 19 17 17 17 16 15 15 14 13 12 11 10 11 11 10 9
6 5 7 8 5 8 6 7 7 6 4 6 6 5 4 5 5 5 4 4 4 4 4 2 1 4 2 3 5 5 9 5 5 5 5 5 5 3 2 2 5 7 8 8 8 6 5 4 4 4 3 3 12 15 15 16 16 16 17 20 22 21 24 26 26 27 25 22 21 19 19 18 17 17 16 15 15 14 13 12 12 11 10 11 11 10
7 7 6 9 5 4 4 8 7 7 6 4 4 5 5 4 5 5 4 5 4 4 4 3 2 3 2 1 1 5 6 5 6 6 6 4 5 5 4 5 7 8 8 7 7 6 6 6 6 7 6 5 6 10 11 12 13 14 15 18 20 21 22 24 25 26 26 23 22 21 20 19 18 17 16 14 14 15 13 11 12 12 9 10 11 11
5 6 3 6 5 5 8 9 5 4 3 2 3 5 3 4 5 5 5 5 4 5 5 4 5 4 3 4 5 6 7 8 8 7 8 7 7 7 6 6 7 8 8 8 7 7 7 8 8 8 8 6 6 5 6 7 9 11 13 15 17 18 20 23 24 25 25 24 22 21 20 19 18 17 17 15 13 15 14 11 10 11 10 9 9 11
3 5 3 4 6 9 9 6 7 8 7 5 4 2 2 4 6 4 4 4 4 6 5 3 6 7 4 3 6 9 9 8 9 9 9 9 9 8 7 8 8 8 9 9 8 8 8 8 9 10 9 7 5 3 3 4 6 7 9 13 16 18 20 22 24 24 23 23 23 21 20 18 17 16 15 14 13 13 14 12 9 9 10 10 9 9
2 5 7 7 9 10 7 3 7 10 10 9 7 4 3 4 4 3 3 4 5 5 4 5 7 7 5 3 4 9 8 5 7 8 11 10 10 9 8 9 9 9 9 8 8 8 7 9 10 10 10 10 9 6 3 3 5 5 7 11 13 14 14 13 16 21 22 20 19 19 19 17 15 14 13 12 11 11 12 12 10 9 10 11 11 10
3 4 5 6 10 9 4 4 5 6 8 11 9 6 5 4 3 4 4 3 5 6 4 6 7 4 2 2 1 3 4 0 4 4 9 9 10 10 8 8 9 8 7 8 8 8 8 9 10 11 12 13 13 11 8 5 4 6 6 8 10 9 8 7 4 7 14 17 16 15 16 15 14 13 12 11 11 9 10 11 10 10 9 11 12 12
3 3 3 6 9 8 4 4 5 5 6 6 6 5 4 4 4 5 5 4 4 6 4 5 5 1 2 2 2 2 4 4 4 5 6 9 10 10 8 8 8 7 8 8 8 9 9 10 10 11 11 12 12 13 12 10 6 5 3 5 10 12 12 11 6 4 5 10 11 11 12 12 12 11 11 11 12 10 10 11 11 13 12 12 13 13
2 3 4 6 6 6 6 6 7 6 6 6 4 3 3 3 3 4 5 4 3 3 4 6 5 1 2 2 1 2 2 5 4 6 7 11 10 10 9 8 8 7 7 7 9 9 8 9 11 12 12 12 12 11 9 8 9 8 6 6 7 9 11 14 13 11 9 9 9 8 9 10 10 10 11 12 13 12 12 12 12 14 14 15 14 14
3 2 5 7 6 8 10 11 11 8 6 8 7 5 5 5 4 5 5 3 3 4 4 5 4 0 2 3 2 2 2 5 4 3 7 11 10 9 9 9 8 7 8 8 8 8 8 10 12 13 13 13 12 12 11 9 8 8 7 7 7 7 8 8 9 11 9 8 8 6 7 9 9 11 12 13 13 13 14 15 15 15 16 17 16 15
3 2 5 7 7 9 11 13 14 10 6 7 8 6 7 8 7 7 6 5 5 6 5 5 4 1 1 3 2 0 3 6 6 5 8 9 8 8 9 9 8 8 8 8 7 7 8 12 13 13 14 13 13 12 12 11 10 10 9 8 7 6 6 6 7 8 6 6 8 9 9 9 8 10 11 12 12 11 12 15 16 17 18 18 18 18
2 3 4 6 6 7 8 8 9 9 6 5 4 6 6 9 11 9 6 5 5 6 7 7 5 1 2 1 2 2 1 3 5 6 9 9 7 8 9 8 7 7 7 7 7 6 7 9 10 12 13 13 14 13 13 13 12 12 11 10 9 8 7 6 6 7 6 7 10 11 10 9 8 8 9 10 11 10 11 12 12 13 15 16 17 19
3 3 3 5 6 5 6 4 2 3 3 3 5 7 7 9 11 8 4 5 5 6 6 7 5 1 5 3 2 2 2 2 2 3 6 9 8 7 7 6 6 7 7 8 7 6 6 6 8 10 11 13 13 13 14 14 13 12 12 11 10 10 10 9 7 6 5 5 6 6 6 6 7 7 8 10 11 12 11 11 10 10 12 14 16 18
4 4 6 8 8 8 8 9 9 8 7 7 8 10 11 9 9 6 4 5 5 6 6 7 6 3 1 2 1 1 2 4 4 3 4 6 7 6 5 5 6 6 6 7 7 5 6 6 7 8 9 10 12 12 13 13 12 12 12 11 10 9 9 9 8 8 7 7 6 5 4 3 2 4 6 8 10 11 11 10 11 14 18 20 21 20
3 5 8 10 12 13 14 15 15 13 12 12 12 13 13 12 10 6 5 7 7 6 6 6 7 9 8 8 7 5 3 4 4 3 1 2 4 6 5 5 6 6 6 7 6 6 7 6 6 7 8 8 9 10 11 11 10 10 10 10 10 9 8 7 7 7 7 5 5 5 4 3 2 1 1 3 6 8 8 8 12 18 24 24 23 23
4 6 8 11 13 14 15 15 15 14 13 14 14 14 13 14 13 10 8 10 9 8 8 8 9 11 11 9 9 9 7 6 5 2 1 2 4 6 7 6 6 6 7 7 7 6 6 6 5 5 7 8 8 9 10 10 9 9 9 9 8 7 7 6 5 5 5 4 4 3 2 1 1 1 1 3 4 6 6 8 12 16 19 20 21 21
3 5 6 9 12 13 14 14 14 14 13 14 15 15 14 14 15 14 12 12 12 12 13 13 12 12 11 10 9 9 9 9 8 5 3 5 7 6 8 9 8 8 7 7 7 6 5 6 5 5 5 6 7 8 8 8 8 8 7 7 6 5 5 5 4 4 3 2 2 2 1 1 1 2 3 4 5 6 7 8 11 13 13 13 15 16
2 3 5 6 8 10 12 13 13 13 14 15 16 14 14 14 15 14 12 10 11 11 12 12 11 9 7 9 11 9 8 9 10 9 9 8 9 9 9 10 10 9 8 7 7 7 6 5 5 5 5 4 5 6 6 5 5 6 6 5 4 4 4 4 3 2 1 1 1 1 2 3 3 3 3 4 5 5 6 7 9 11 11 11 11 12
3 3 5 5 7 8 9 12 13 13 14 15 15 13 13 13 12 11 10 9 8 8 9 9 9 7 6 8 11 10 9 12 13 11 8 7 8 10 11 11 9 9 9 6 7 7 7 6 4 4 4 3 4 5 5 4 4 6 6 4 3 3 3 3 2 1 1 2 3 3 3 3 3 4 4 4 5 5 6 7 7 9 10 10 10 11
3 4 5 5 6 7 9 11 11 10 10 11 9 8 10 11 11 11 11 11 10 9 8 7 7 8 8 9 10 8 9 12 11 8 8 8 8 9 8 8 10 11 9 6 6 7 6 5 5 5 2 1 1 3 3 3 4 5 4 2 3 2 1 1 0 1 1 2 3 4 4 4 5 5 5 5 5 6 7 7 8 9 10 10 10 11
5 6 6 6 6 7 10 11 10 8 8 6 4 4 7 9 10 9 9 9 10 9 8 7 9 10 8 9 10 7 8 11 11 11 12 8 6 9 10 8 6 5 5 3 5 4 2 3 6 7 3 4 3 5 4 0 3 3 2 2 2 1 1 2 2 2 2 2 4 4 5 5 6 6 6 6 6 7 7 8 9 9 10 11 12 12
6 6 6 5 6 7 8 8 8 8 6 5 7 6 5 7 8 8 9 11 11 11 12 11 11 10 9 9 9 7 6 8 10 12 12 9 7 8 10 9 5 2 1 2 4 4 6 6 6 4 1 4 4 4 5 3 3 2 2 1 1 1 2 3 3 3 3 4 4 5 6 6 6 6 6 6 7 8 9 10 10 11 11 11 12 13
7 5 5 5 6 6 6 7 8 8 7 8 8 6 5 3 5 7 8 8 8 10 12 12 10 9 10 10 9 7 7 8 8 8 9 9 9 10 12 10 4 2 2 5 7 6 7 4 2 2 2 5 8 8 6 2 0 1 2 2 2 3 4 4 4 5 5 5 5 7 7 7 7 6 7 7 8 9 10 11 11 11 11 12 13 13
8 6 5 5 6 6 7 8 8 9 11 9 5 7 6 4 4 4 4 5 7 8 7 9 10 10 10 9 8 9 9 8 6 5 9 11 9 8 11 12 9 8 7 6 5 4 3 1 5 4 1 4 7 8 8 6 4 3 4 4 5 5 5 5 6 6 6 6 7 8 8 8 8 8 8 9 9 10 11 11 11 11 12 12 13 13
9 7 6 6 6 6 7 7 7 8 7 2 5 8 8 7 7 6 4 4 5 5 8 9 10 12 11 9 8 9 8 6 4 3 9 12 10 7 8 9 8 9 5 2 1 1 2 4 6 6 4 6 7 8 9 8 6 5 6 7 6 7 7 7 7 7 8 8 8 9 9 9 10 10 10 10 10 11 11 11 12 12 12 13 14 14
9 7 6 6 6 6 6 6 7 6 2 4 6 6 7 7 6 4 3 2 6 11 10 8 8 10 11 10 9 7 5 4 3 4 7 11 10 8 7 8 7 5 2 1 1 2 3 2 3 4 7 10 11 10 9 8 8 8 9 8 8 8 8 8 9 9 9 10 10 10 10 11 11 11 11 11 12 13 12 12 13 13 13 13 13 13
7 6 6 7 7 7 7 7 7 4 2 6 7 6 7 7 6 4 4 1 7 10 8 7 8 8 8 9 8 6 5 4 4 5 6 8 8 8 8 9 9 7 6 5 5 7 6 3 3 6 10 12 12 11 10 10 11 10 10 9 9 10 10 10 11 11 11 11 11 11 12 12 12 12 13 13 13 12 12 13 13 13 13 13 12 13
4 5 6 7 8 8 8 8 6 1 3 6 8 7 5 5 3 3 3 1 5 8 8 7 8 9 8 8 7 5 5 6 6 7 9 8 7 8 9 10 11 11 10 10 10 13 12 8 8 10 13 13 14 13 13 12 11 11 11 11 11 11 11 12 12 12 13 13 13 13 13 13 13 13 13 13 13 12 12 12 12 12 12 12 12 13
3 4 5 6 7 7 5 7 7 3 1 5 8 7 5 3 1 1 3 4 5 8 9 8 8 9 8 8 7 6 7 8 9 10 11 10 10 9 8 9 10 10 12 13 12 13 12 11 12 13 14 14 15 15 14 13 13 13 13 12 12 13 13 14 14 14 14 14 14 14 15 15 15 15 15 15 14 14 13 12 12 12 12 11 12 10
2 3 5 5 5 5 5 6 6 3 1 4 6 5 5 4 3 3 5 7 7 8 9 8 8 9 8 8 9 9 9 10 11 11 11 12 12 12 12 12 10 10 10 12 14 15 15 14 15 15 15 15 17 17 15 14 15 14 14 14 15 15 15 15 15 15 15 15 15 16 16 16 15 15 15 16 16 15 15 14 14 13 11 12 13 9
3 3 5 4 2 2 4 4 2 2 4 4 5 5 4 4 5 5 6 7 8 8 8 8 8 9 10 9 9 10 11 11 11 11 12 12 11 12 13 14 14 13 13 14 16 18 17 17 17 16 16 16 17 17 16 16 15 15 14 15 15 15 15 16 16 17 17 17 16 16 15 14 14 14 14 15 16 16 16 16 15 13 12 13 13 8
3 4 4 3 1 2 5 5 3 3 4 4 6 4 4 5 6 7 8 8 8 8 8 8 9 10 11 11 11 11 11 11 12 12 12 13 13 13 14 16 18 18 18 17 18 19 20 20 20 18 17 17 16 16 16 16 16 16 15 15 16 16 17 17 17 17 17 17 16 16 15 14 15 15 15 16 16 16 17 16 13 12 12 11 9 7
7 9 6 4 4 5 6 6 6 7 7 7 6 6 7 7 7 8 9 8 8 9 9 9 10 11 12 12 12 11 11 13 14 14 14 14 14 14 16 18 20 21 20 19 19 20 21 20 20 18 17 17 17 18 18 17 16 16 16 16 16 17 18 18 17 17 16 17 17 17 17 17 17 17 17 17 17 17 17 15 11 8 8 7 6 9
9 9 6 6 6 6 5 5 7 10 10 10 9 9 9 9 9 9 9 8 9 10 11 11 12 13 13 14 14 14 14 14 15 15 14 14 15 15 16 17 19 20 21 20 20 21 21 19 19 17 15 15 16 17 18 18 17 17 18 18 18 19 18 17 17 17 17 17 18 18 18 19 18 17 17 17 17 17 14 11 6 5 6 8 9 11
5 6 6 7 6 6 7 7 9 11 11 9 8 8 8 9 11 11 11 11 12 13 13 13 14 14 13 14 15 16 16 16 16 16 14 14 14 15 15 18 21 21 21 21 21 20 19 19 18 16 14 14 14 16 17 18 19 19 19 19 19 18 18 17 17 16 16 17 17 17 18 19 18 18 17 16 14 11 7 4 4 5 7 9 12 14
6 5 6 6 6 6 7 7 9 11 9 8 8 9 10 10 12 13 14 14 14 14 14 15 16 15 14 15 14 15 16 15 15 16 16 14 14 15 17 21 23 23 22 22 21 19 18 18 16 15 16 16 16 17 18 19 19 20 19 19 17 15 14 15 15 14 15 16 17 18 19 20 19 19 18 12 6 4 5 5 6 9 10 10 13 16
6 5 5 5 5 5 6 8 9 10 8 8 11 13 13 13 13 14 13 13 13 13 12 13 14 14 15 16 15 14 14 13 14 16 15 14 14 17 20 23 24 24 24 22 21 20 19 19 17 17 17 18 18 18 18 18 18 17 15 13 11 9 9 11 13 13 14 16 17 17 17 16 16 16 12 8 10 11 10 9 8 10 11 12 14 16
3 3 3 5 5 6 8 10 10 9 9 9 12 13 13 13 13 13 12 12 11 11 12 12 13 13 14 15 16 16 14 13 15 16 15 15 18 20 22 24 24 24 24 21 20 19 19 19 19 19 18 18 17 17 17 16 13 10 8 6 5 6 7 9 11 12 13 13 13 14 14 15 15 11 8 12 15 17 18 18 16 14 14 16 17 17
Wind_Direction
219 237 241 241 233 298 331 346 358 342 335 328 316 298 256 257 244 207 147 141 168 254 238 230 241 237 217 211 197 183 208 203 225 226 160 154 164 172 174 166 163 160 165 171 155 146 152 171 189 181 168 157 153 154 152 150 147 145 145 144 144 145 142 139 139 136 135 134 128 123 116 113 108 111 115 96 90 96 100 92 78 71 59 60 61 47
216 249 250 251 268 40 1 355 356 331 321 313 305 299 283 268 246 128 105 125 137 268 271 259 258 249 231 239 228 199 221 190 196 260 228 168 176 180 176 173 165 153 163 164 144 153 168 171 189 195 177 167 162 157 156 155 150 149 150 147 148 149 147 145 145 142 139 136 134 134 133 133 122 116 120 108 95 96 97 86 71 67 65 70 72 68
214 242 250 246 215 51 342 343 335 316 310 298 285 279 278 272 258 106 101 175 171 180 263 264 265 268 240 234 269 252 243 216 193 240 260 218 205 203 181 172 163 149 162 168 147 168 183 167 171 200 200 180 170 163 159 158 153 152 152 150 151 151 151 150 147 144 138 124 121 127 128 124 109 99 105 103 100 101 93 81 72 68 64 67 73 74
238 225 247 240 91 29 304 322 311 304 289 272 273 270 265 263 262 186 127 259 318 327 284 282 285 297 282 229 251 254 232 217 221 233 248 240 230 236 179 157 157 151 157 168 156 169 194 173 165 190 210 192 175 169 164 160 156 155 154 153 154 154 153 152 149 146 140 124 114 109 106 114 115 105 103 103 102 100 91 79 73 69 65 64 64 61
262 250 101 94 89 251 282 297 274 275 270 251 245 254 267 274 278 288 109 91 333 302 274 281 284 282 268 221 232 248 205 193 224 231 237 234 229 242 168 143 150 154 156 168 165 168 185 179 175 194 205 194 182 178 171 165 160 158 157 156 157 156 155 153 150 149 145 133 124 116 107 111 117 114 114 115 110 103 94 84 77 71 67 69 67 62
260 317 92 140 222 242 251 263 249 241 259 254 238 241 257 276 291 302 277 166 255 264 224 231 259 252 238 227 228 234 205 199 223 228 232 234 226 231 181 142 142 153 165 170 164 164 172 171 182 201 205 195 190 186 178 170 165 162 159 158 159 157 157 155 151 153 148 139 136 132 125 125 128 134 137 128 120 109 98 92 86 80 74 72 70 67
185 139 258 269 275 263 255 258 254 246 252 262 290 283 262 267 280 280 273 255 244 268 212 188 240 265 249 251 245 234 218 205 211 222 222 228 225 224 211 157 141 150 168 167 158 161 174 170 175 199 210 203 196 190 182 175 169 165 161 160 161 159 158 157 155 155 150 145 146 145 145 149 149 144 134 126 123 113 103 103 98 90 86 79 76 75
234 171 158 288 273 257 258 255 239 235 245 258 352 310 277 266 265 256 259 258 253 276 258 188 236 267 263 265 264 249 232 200 191 220 220 217 214 204 208 186 165 166 168 170 164 161 174 185 188 200 206 205 201 190 183 179 173 168 164 163 163 161 160 160 159 158 154 151 153 154 159 163 155 140 130 128 128 121 116 116 107 101 97 88 86 86
285 214 167 250 257 250 254 254 238 230 239 238 269 302 282 275 273 264 259 259 258 269 260 225 237 251 253 260 249 221 230 202 180 213 223 227 219 191 196 205 188 171 165 170 168 161 171 186 193 196 195 201 207 197 186 182 177 171 167 165 164 163 162 163 163 161 157 157 157 157 165 167 150 137 136 138 136 131 129 125 116 113 108 99 96 95
250 260 269 250 246 246 245 251 250 247 256 255 278 301 282 270 271 267 262 266 261 253 254 248 243 249 251 255 250 205 215 218 203 205 205 222 228 189 185 178 121 126 141 162 176 164 166 178 184 187 188 194 204 206 196 184 178 174 170 167 167 165 164 166 166 163 160 161 161 160 168 167 147 142 148 147 143 142 140 135 129 125 119 113 109 106
222 196 269 274 261 262 259 262 259 241 270 271 259 268 263 253 253 252 254 263 261 252 254 254 250 256 257 237 241 259 211 197 224 228 185 193 219 158 117 96 100 146 161 179 192 168 160 177 181 175 176 189 207 209 199 184 180 178 172 170 169 167 167 169 168 165 162 164 164 162 171 170 152 152 157 150 149 152 150 149 148 144 136 129 125 121
247 191 186 232 251 269 276 278 283 237 250 260 249 262 270 252 246 255 247 243 250 250 250 258 256 250 251 242 166 98 146 136 93 251 164 152 222 97 97 109 118 115 254 231 132 105 110 172 182 166 170 192 207 205 190 179 182 182 176 173 171 168 169 170 170 168 165 167 167 165 173 173 159 160 162 154 158 162 160 162 161 159 151 143 142 137
269 259 245 217 205 235 265 267 260 233 227 244 246 250 265 259 253 256 246 239 256 263 270 299 293 257 229 257 226 159 180 185 148 158 170 160 139 101 97 95 79 81 288 24 70 68 54 42 204 199 191 191 193 192 181 174 180 185 183 178 173 170 170 171 171 170 168 169 170 168 173 176 165 165 165 161 165 169 168 170 170 170 165 159 160 157
243 251 263 250 191 189 234 255 256 236 202 224 245 241 248 256 258 255 248 241 247 262 275 321 319 281 197 271 271 173 157 176 142 125 141 131 113 111 127 149 128 94 55 49 65 69 55 47 46 238 216 188 175 177 180 173 176 185 188 185 180 174 171 171 171 171 170 170 171 170 173 177 171 169 170 167 171 175 176 177 177 179 177 172 172 171
251 238 235 242 199 161 205 251 271 285 259 231 243 244 230 230 246 256 260 266 269 288 270 189 286 287 221 305 327 90 105 113 129 112 93 93 106 141 182 126 96 76 62 59 70 79 75 58 51 45 15 150 154 167 179 172 174 187 192 190 187 179 172 172 172 171 171 171 171 171 174 178 176 174 175 172 175 180 181 184 184 186 188 181 179 179
257 261 217 220 219 150 217 250 256 278 284 270 259 248 232 228 244 256 271 287 302 304 280 224 229 276 206 222 4 100 117 133 137 127 129 146 142 133 115 84 83 82 83 83 85 89 90 84 75 67 46 45 111 147 166 170 178 190 198 197 194 185 175 173 173 171 171 172 172 171 174 179 179 178 180 181 182 184 187 192 187 188 196 190 184 184
253 272 205 192 219 224 246 265 266 258 279 298 269 260 278 278 261 265 275 275 265 261 260 236 242 248 178 188 194 176 171 157 149 152 154 145 119 106 99 92 92 92 93 92 88 88 89 88 85 83 78 57 56 101 144 174 188 194 201 202 202 198 182 174 175 173 170 171 173 173 174 178 180 179 181 185 188 185 187 196 194 191 199 200 194 187
263 281 252 205 238 236 229 268 289 275 279 284 267 267 324 274 256 259 276 269 255 255 254 237 246 248 231 216 200 190 179 166 171 166 142 127 115 108 99 94 95 94 93 90 86 82 78 80 78 74 80 82 75 86 134 171 182 191 203 203 205 207 195 179 173 173 171 170 171 173 175 179 184 184 183 186 191 185 183 192 198 197 201 205 206 197
234 272 272 257 264 252 211 211 270 261 254 254 268 298 296 264 255 244 257 266 263 265 269 267 264 258 256 257 196 184 177 187 201 163 138 137 128 115 108 103 98 93 91 89 89 85 74 73 75 76 81 81 76 73 95 140 165 179 201 206 201 206 211 196 174 169 169 169 170 172 175 180 184 187 186 185 188 184 181 188 195 203 209 209 212 211
244 265 274 262 273 272 220 200 253 260 242 233 241 265 266 264 269 251 247 253 256 263 269 266 268 277 307 333 18 183 164 62 282 189 148 145 130 116 115 110 101 97 96 94 94 92 85 79 74 77 78 72 62 57 63 81 138 165 187 200 189 190 217 233 219 177 166 163 165 167 172 180 186 189 193 190 190 189 185 189 198 209 219 219 216 217
278 270 277 273 283 286 250 228 259 286 284 254 235 249 265 274 288 275 260 261 271 274 278 274 271 318 32 51 67 221 160 110 278 241 151 128 121 114 110 106 102 99 96 95 98 99 102 105 103 97 91 86 72 56 49 48 67 106 136 169 165 170 185 187 197 227 179 153 152 156 164 174 182 186 195 196 194 200 200 201 211 217 226 236 230 222
292 274 274 271 273 271 260 261 266 265 281 290 279 281 297 285 284 278 264 275 308 289 282 288 286 5 31 45 89 259 125 112 242 239 132 117 115 110 108 107 105 103 100 97 97 96 97 102 108 108 102 100 100 95 83 64 63 70 60 73 109 136 160 166 165 170 167 151 144 147 158 173 188 195 203 206 204 211 213 213 220 221 227 238 239 234
31 297 278 271 266 273 277 279 278 268 266 282 279 273 279 275 272 271 270 284 290 264 262 283 290 23 350 341 8 315 105 135 226 241 120 118 117 118 121 118 113 110 106 103 100 100 100 96 95 95 90 89 97 112 118 111 103 101 94 88 85 97 121 131 134 144 153 157 159 164 165 172 190 202 208 209 208 214 218 221 225 225 227 233 235 238
29 271 261 271 274 280 279 274 272 261 237 254 269 271 273 276 274 269 278 287 273 271 277 278 275 224 276 323 2 188 157 155 178 172 137 125 123 130 129 123 122 118 112 112 112 113 115 113 109 104 100 96 93 94 96 97 103 103 97 101 107 120 137 138 138 147 156 171 194 212 205 191 201 216 221 217 211 218 228 232 233 229 231 234 233 236
327 256 242 264 273 275 267 254 252 247 228 230 271 283 283 287 280 267 275 290 274 273 275 270 278 256 116 27 11 339 325 156 171 165 146 136 138 141 133 129 129 123 118 117 113 112 113 115 114 113 113 112 109 105 102 99 98 95 89 89 94 100 109 117 132 152 167 178 190 203 207 207 216 228 237 233 227 235 244 245 247 241 236 238 242 244
287 281 276 270 268 271 270 266 285 312 302 285 287 285 286 296 292 280 283 286 274 279 274 269 284 146 139 164 202 236 288 263 233 200 162 151 150 142 130 131 130 125 123 115 107 101 95 94 99 105 109 113 115 115 114 111 108 106 104 101 95 89 88 87 88 95 103 128 151 168 183 198 213 223 230 228 224 230 236 240 254 260 246 237 240 247
284 278 277 271 269 273 281 294 314 324 309 290 286 282 277 285 298 300 287 271 278 298 286 275 293 301 246 266 244 126 317 304 296 264 198 154 142 136 131 139 142 136 130 122 116 109 99 95 94 95 98 105 113 115 114 114 113 112 111 106 100 94 89 86 87 87 82 86 104 122 135 146 199 235 237 234 229 234 239 239 244 251 247 237 233 240
274 259 257 262 265 270 276 286 296 299 293 286 284 282 278 281 285 276 261 270 281 286 273 281 310 313 312 327 347 360 326 293 292 275 202 116 139 149 159 183 172 152 140 132 130 126 118 113 106 105 104 103 106 109 109 109 107 106 108 105 101 99 93 85 85 91 90 86 94 102 114 127 132 135 231 257 245 244 249 247 242 242 244 245 241 242
253 256 255 260 261 266 272 276 281 283 283 282 282 284 286 287 282 270 265 278 285 281 278 290 302 295 294 307 323 331 328 317 312 300 215 243 223 187 182 206 204 185 175 156 142 139 130 123 119 114 113 114 118 118 116 116 114 105 100 99 99 98 96 90 82 85 91 98 101 93 89 138 155 177 253 270 256 247 241 238 242 243 245 251 253 251
232 257 268 274 274 276 277 279 284 285 283 283 279 278 279 280 280 277 272 271 272 275 282 288 288 284 289 296 299 311 326 322 313 298 259 252 250 221 198 211 222 222 214 184 163 163 146 130 125 115 111 115 118 115 107 107 112 109 100 94 94 94 92 87 77 68 68 77 88 78 336 296 284 255 258 262 258 256 247 234 235 240 246 257 263 260
160 273 301 299 288 285 284 285 284 281 282 283 281 284 289 286 280 279 279 276 271 274 283 288 288 286 297 309 302 298 303 295 280 274 267 249 244 238 224 225 230 236 241 216 179 169 155 146 144 134 128 118 108 108 104 101 110 112 103 91 86 77 65 66 67 57 32 2 359 318 286 288 290 280 277 278 273 270 267 257 247 242 242 250 261 264
168 263 301 300 282 281 284 282 281 284 287 282 280 291 298 290 282 280 279 277 275 281 288 291 292 290 300 307 294 287 297 289 274 272 284 278 265 255 238 227 226 237 250 232 183 176 172 166 158 133 122 139 149 140 134 146 149 126 113 108 107 95 70 70 63 8 341 327 313 302 296 297 295 290 288 289 290 288 285 283 279 270 261 254 253 254
243 260 275 278 278 285 287 289 299 307 294 279 281 299 296 286 287 288 281 277 280 280 276 272 275 284 303 311 297 297 322 317 304 308 323 332 332 312 283 250 233 238 250 233 196 195 194 175 146 115 65 320 170 116 106 135 126 106 105 118 123 122 106 97 192 262 268 285 297 301 300 297 291 287 285 284 288 292 293 289 285 285 284 281 274 263
256 261 266 271 273 279 288 298 302 289 270 270 287 313 312 301 297 302 307 309 308 302 295 290 285 290 315 329 317 324 345 337 334 337 329 326 345 337 316 295 272 275 284 236 198 190 155 96 96 91 31 324 4 23 1 35 113 117 160 174 133 104 345 309 274 261 254 274 285 290 294 293 289 287 287 288 288 289 287 283 281 282 284 284 283 279
246 253 263 268 268 274 285 291 277 262 262 284 286 296 328 321 307 309 308 307 315 327 327 314 296 297 314 317 313 324 337 332 332 332 328 336 358 345 318 300 285 289 292 153 130 88 64 60 69 83 311 309 333 312 270 220 156 169 201 187 148 267 281 282 289 296 293 288 289 291 291 286 280 282 285 286 287 285 280 277 278 280 278 277 277 278
252 256 262 267 268 273 275 263 258 271 288 292 297 332 10 339 305 297 287 295 326 341 338 325 313 313 311 305 310 325 334 339 329 321 337 359 12 12 354 332 305 212 152 112 101 83 68 52 340 309 328 323 313 295 276 265 47 284 278 283 271 263 267 277 290 292 288 286 287 288 290 287 282 282 282 282 281 280 280 277 276 276 274 274 274 273
253 254 252 254 255 259 268 265 267 282 286 286 325 24 31 18 3 341 305 313 320 316 332 345 344 334 317 310 336 355 356 351 326 332 4 359 354 17 11 358 18 61 73 81 96 100 101 192 269 272 249 266 280 293 302 308 308 296 291 290 285 282 279 279 280 283 287 293 292 292 294 292 288 283 280 280 278 277 278 279 279 279 276 275 274 272
236 233 234 241 245 252 265 270 270 273 279 316 61 55 39 34 32 16 338 323 333 1 29 27 13 357 341 335 354 3 357 337 310 358 10 351 350 26 17 358 30 67 80 88 105 159 212 237 249 250 263 285 287 288 290 291 294 296 290 285 284 283 283 286 289 293 296 296 296 298 299 295 292 289 285 282 280 280 281 279 278 277 275 275 276 274
229 225 235 246 249 252 257 262 265 264 283 48 55 51 42 30 8 334 289 307 19 34 36 24 10 3 355 353 356 350 332 312 321 13 1 344 352 15 3 346 5 35 28 332 307 280 273 297 311 283 287 296 288 275 275 282 286 285 281 282 284 284 285 286 286 287 288 290 293 295 294 292 290 287 283 280 277 276 278 279 278 276 274 274 276 277
251 246 244 246 246 247 248 254 259 258 41 34 23 29 35 18 344 298 241 278 11 14 12 1 354 348 344 345 344 333 322 325 340 351 341 333 333 336 337 339 345 351 340 317 324 332 325 322 314 287 281 284 282 279 280 279 274 272 273 274 274 272 272 273 273 275 279 283 286 286 284 283 281 279 278 274 270 269 270 271 270 270 271 272 272 275
260 261 254 251 249 245 244 251 254 226 55 8 356 0 4 357 333 283 252 292 350 349 351 352 341 332 331 331 324 317 325 329 327 322 317 311 310 317 329 332 330 330 322 308 322 339 334 313 293 282 277 279 282 283 282 278 276 276 275 271 269 270 271 271 272 274 276 278 279 279 279 279 278 279 280 278 274 270 268 268 268 268 271 273 272 273
245 266 262 257 256 257 258 261 261 244 57 334 340 353 351 332 326 322 315 312 318 330 339 338 328 325 328 325 318 317 322 320 316 314 311 308 309 311 313 315 313 309 303 298 300 305 301 294 293 288 281 278 276 273 274 276 276 276 277 276 273 273 275 276 275 275 275 275 276 278 281 282 281 280 280 277 274 269 265 265 267 270 273 275 277 275
283 274 263 259 266 274 270 263 267 271 279 307 330 4 20 2 348 341 327 321 323 330 329 324 320 319 318 317 314 311 312 313 312 309 306 305 305 303 301 302 295 286 294 300 293 283 277 276 278 280 285 291 292 289 286 282 277 273 271 272 273 275 277 278 278 278 277 276 276 278 279 278 277 276 276 275 271 264 259 257 259 265 270 270 273 269
305 282 274 289 321 285 265 267 271 223 242 287 337 8 21 360 336 326 320 316 318 319 312 307 312 313 309 308 307 306 304 302 300 300 300 298 295 294 295 294 287 283 286 284 278 276 276 274 272 269 267 266 268 273 276 277 279 280 276 274 278 282 283 283 282 280 279 277 276 276 276 276 277 276 275 277 275 269 265 260 255 254 253 255 259 242
354 2 319 308 338 305 291 305 315 265 267 344 17 5 336 327 318 312 309 303 306 315 316 316 322 326 321 313 308 305 301 297 295 294 293 292 291 291 289 285 283 283 282 279 280 282 280 277 276 277 278 274 268 269 275 280 281 282 281 281 283 284 284 284 283 281 280 282 282 282 282 284 286 285 283 281 279 277 277 272 260 249 246 250 250 213
41 20 347 310 309 313 307 307 311 312 325 348 347 319 315 319 314 313 312 312 319 328 328 323 321 321 319 313 307 302 297 297 297 293 291 291 290 289 288 284 282 283 282 281 284 284 283 283 283 284 290 295 293 290 291 292 288 285 286 287 286 285 283 283 283 284 285 286 287 288 287 285 285 285 284 282 278 276 276 275 268 257 252 242 215 186
52 27 342 300 298 307 306 305 318 329 339 341 332 325 325 320 317 323 325 325 327 323 318 316 311 306 304 301 297 294 292 292 292 289 290 291 287 286 287 285 283 284 284 283 281 277 276 280 282 280 279 282 288 294 298 298 295 291 289 286 283 282 282 283 286 288 287 285 284 284 283 282 282 280 280 281 280 277 275 277 276 259 239 213 185 170
32 22 336 306 300 300 298 313 339 347 344 335 326 322 321 319 323 327 325 322 322 315 309 307 304 299 298 297 295 295 295 294 292 290 290 291 289 287 286 285 284 284 283 283 283 282 280 278 279 286 292 290 291 294 292 289 287 284 282 282 282 284 287 288 286 286 289 290 287 283 280 281 282 282 281 280 279 274 266 259 228 196 188 186 179 172
325 332 332 328 315 301 299 324 351 347 329 318 318 319 324 329 329 324 318 314 312 309 306 305 302 300 299 299 301 302 301 300 299 297 295 295 296 295 292 290 290 289 285 283 284 289 294 294 293 300 303 296 288 284 280 277 277 276 278 282 285 288 294 295 291 289 289 288 284 282 281 279 278 279 278 270 244 183 153 152 168 173 171 176 183 181
324 325 345 343 315 300 313 329 336 327 312 313 321 321 321 322 318 313 312 312 310 310 309 306 304 303 301 301 301 299 295 295 295 293 292 290 290 292 291 291 292 292 290 288 286 287 290 293 290 286 282 279 277 277 277 278 281 285 290 295 296 298 306 308 305 298 290 285 283 282 282 280 279 278 267 218 163 145 136 132 147 166 167 162 164 166
348 329 337 333 318 313 318 320 322 318 309 309 312 312 311 313 312 312 317 319 318 318 317 311 309 308 304 303 302 297 293 293 293 292 292 291 290 291 289 287 289 291 290 292 294 291 286 283 279 273 269 272 276 277 277 282 294 311 326 332 330 326 321 318 313 303 296 294 291 285 282 281 277 261 215 175 158 146 132 120 117 125 133 135 136 141
Height
733 742 745 741 737 732 729 727 729 730 729 731 730 722 719 722 720 712 709 707 708 720 722 717 718 714 710 711 707 708 711 713 717 719 723 731 735 735 737 739 742 746 748 749 749 752 756 759 762 766 766 766 766 766 768 769 771 772 773 776 777 779 781 783 784 786 788 789 791 792 794 795 796 797 798 799 800 800 801 802 803 804 805 805 806 806
735 747 743 732 728 728 728 728 729 731 732 734 734 729 724 723 718 712 713 711 711 725 725 717 718 716 711 710 707 709 712 713 719 722 721 725 731 731 733 737 739 742 744 745 748 752 756 758 763 768 767 766 766 766 768 769 770 772 774 775 777 779 781 782 784 785 787 788 790 792 793 794 795 796 798 799 800 801 802 803 804 805 805 806 807 806
743 745 735 724 724 726 728 729 731 733 734 737 735 734 734 725 717 718 720 716 715 727 730 722 723 721 712 710 711 712 713 715 718 721 720 721 725 725 728 734 737 742 744 746 749 752 756 757 761 768 770 767 767 767 768 769 770 772 773 775 776 778 780 782 783 785 787 788 789 791 792 793 795 796 798 799 801 802 802 803 804 805 805 806 806 806
746 738 726 721 723 728 731 731 734 737 737 738 737 738 738 725 721 727 727 722 719 724 729 727 728 727 716 712 716 714 713 715 716 718 718 718 720 720 722 729 735 741 744 747 750 753 756 758 760 766 771 769 767 768 768 768 770 771 773 774 775 778 779 781 783 784 786 788 789 791 792 793 795 797 798 800 801 802 803 804 804 805 806 806 806 806
737 726 719 722 727 730 734 735 736 741 741 737 735 737 735 725 722 725 727 728 728 728 729 732 741 737 724 722 723 715 712 716 717 717 718 717 717 718 720 728 734 738 743 745 748 752 755 758 761 765 770 769 768 768 768 768 770 770 772 774 775 777 779 780 782 784 785 787 789 790 792 794 796 798 799 800 802 803 804 804 805 806 806 807 807 807
730 723 719 726 729 729 735 738 736 740 744 738 732 729 729 727 724 724 727 732 742 744 731 734 756 751 726 724 726 717 715 718 717 717 720 719 717 718 722 730 736 739 741 743 746 750 753 757 761 765 767 768 769 769 769 769 769 770 772 773 775 776 778 780 782 783 785 787 789 791 793 795 796 798 799 800 802 803 804 805 805 806 807 807 808 808
723 724 723 728 731 731 736 738 733 734 743 743 732 723 723 725 728 730 730 735 749 749 729 728 755 757 735 726 721 715 716 719 719 720 720 720 720 721 722 727 736 742 742 742 745 749 752 756 759 762 764 767 769 770 770 770 769 770 771 773 775 776 777 780 781 783 785 786 789 791 793 795 796 797 798 800 802 803 804 805 806 806 807 808 809 809
721 725 729 731 732 736 739 737 730 728 739 744 731 724 725 726 729 731 732 737 739 736 730 728 740 754 749 733 718 714 718 719 722 724 722 720 720 721 722 724 730 737 740 742 744 748 751 754 757 759 762 765 768 770 770 770 769 770 771 772 774 775 777 779 781 783 784 786 788 791 793 794 795 796 798 800 802 803 804 805 806 806 807 808 809 810
722 727 731 732 736 739 736 730 723 722 733 734 725 725 727 727 729 728 731 735 733 738 748 738 734 752 755 733 717 717 722 724 726 727 725 721 718 719 722 722 723 728 734 737 741 746 749 751 754 757 760 763 765 768 770 769 769 769 770 772 773 775 777 778 780 782 784 786 787 790 792 794 795 796 798 800 801 803 804 805 806 807 808 809 809 810
722 723 724 728 735 735 729 721 715 720 729 725 721 726 727 727 727 728 733 734 736 749 758 743 735 752 756 734 723 726 728 729 728 725 724 721 718 718 720 721 723 726 731 735 737 741 745 748 751 754 757 759 762 766 769 768 768 768 769 771 773 774 776 777 779 781 784 786 787 789 791 793 794 796 797 799 801 803 804 805 806 807 808 809 810 811
718 718 720 725 729 726 721 717 713 719 724 722 726 730 731 730 726 729 733 734 748 761 755 741 733 745 755 740 731 734 729 724 726 725 723 721 720 720 722 724 726 728 730 732 733 736 741 744 747 750 752 755 760 765 768 767 766 767 767 769 771 773 775 777 779 781 783 785 786 788 791 792 794 795 797 799 800 802 804 805 806 807 808 809 810 811
718 721 723 723 722 720 721 720 716 718 721 724 730 734 739 738 734 741 741 741 763 768 749 735 728 739 758 745 731 732 723 718 727 728 724 725 725 724 726 727 727 729 730 730 733 737 741 743 744 746 749 754 762 764 763 764 765 766 766 767 769 771 774 775 778 780 782 784 786 787 790 792 793 795 796 798 800 802 803 804 806 807 808 809 810 811
727 725 720 717 717 719 726 729 725 721 721 727 732 739 752 758 760 766 762 761 771 762 742 736 734 740 749 737 725 726 721 719 723 724 724 727 730 729 729 730 729 731 732 733 737 743 745 746 746 746 748 753 758 759 759 762 764 766 767 767 768 770 772 774 776 778 781 783 785 786 789 791 793 794 796 797 799 801 802 804 805 806 807 808 809 810
739 730 720 719 719 717 724 733 734 727 725 731 733 742 758 770 780 785 775 774 775 759 744 743 747 747 743 733 722 719 719 718 718 721 723 726 730 732 730 730 731 732 735 737 742 748 750 749 749 748 748 750 753 755 758 760 763 765 767 768 769 770 771 773 775 777 780 782 784 786 788 790 792 793 795 797 799 800 802 803 804 805 806 807 808 810
750 747 729 724 721 716 721 726 727 724 723 726 723 732 751 760 773 781 774 773 771 759 748 747 753 753 749 742 726 715 718 719 719 722 724 727 730 731 730 730 733 737 741 743 747 751 752 751 750 749 749 749 751 755 757 759 762 764 766 767 769 770 770 772 773 775 778 780 783 785 787 790 791 793 795 796 798 800 801 802 803 805 806 806 808 809
749 746 722 715 714 714 722 719 714 722 729 725 717 728 743 742 749 761 761 758 761 764 758 751 751 743 740 739 723 717 723 722 724 727 728 732 731 731 734 734 738 743 744 747 750 752 752 752 751 751 751 751 752 755 756 759 761 763 765 767 768 769 770 771 772 773 776 779 781 783 786 789 791 793 794 796 797 799 801 802 803 805 806 806 807 808
748 742 716 713 716 713 720 717 710 722 734 730 728 735 733 725 733 751 757 749 754 771 764 751 750 739 737 741 727 722 727 725 728 730 730 733 733 735 740 740 743 746 747 749 751 752 752 751 752 752 752 753 754 756 758 759 761 763 765 766 768 770 770 770 771 772 774 777 779 782 785 788 790 792 794 795 797 798 800 802 803 804 806 806 807 808
743 744 721 715 724 716 711 716 715 716 724 731 736 731 723 724 729 742 759 760 762 774 761 746 751 746 745 749 733 724 729 729 729 730 731 735 738 742 745 745 747 747 748 750 751 752 752 751 752 753 754 755 756 757 759 760 762 763 765 766 768 770 769 768 769 770 772 775 778 781 783 787 790 791 793 795 796 798 799 802 803 804 805 806 807 808
736 749 734 717 724 717 705 719 729 720 716 724 727 720 725 744 747 745 759 768 771 775 764 752 749 742 741 744 733 729 734 733 730 730 734 738 740 745 748 748 749 749 750 752 752 754 753 753 754 754 755 757 758 759 760 761 762 763 765 766 767 770 771 771 770 770 772 774 777 780 782 786 789 791 793 794 795 797 798 800 802 803 805 806 807 807
730 749 748 724 717 716 711 724 738 731 719 717 720 719 723 736 743 745 749 754 764 771 768 763 755 748 744 739 735 735 734 736 738 734 735 739 742 746 749 750 752 752 752 753 754 756 755 756 757 756 758 759 760 762 762 763 764 764 766 766 767 770 774 777 777 775 774 775 777 780 782 785 788 790 792 793 795 796 797 799 800 802 803 804 805 806
730 745 754 736 720 723 726 727 731 734 729 725 727 732 734 733 736 741 740 739 750 761 766 766 763 757 748 736 737 738 733 738 744 739 737 740 743 747 750 752 754 754 755 755 755 756 757 758 759 759 761 762 763 764 764 765 766 766 767 767 768 770 774 777 779 780 779 778 778 780 782 785 788 790 792 793 794 795 796 798 799 800 802 803 804 805
736 745 753 747 737 736 732 721 718 723 726 729 732 735 742 744 746 756 756 745 747 759 766 767 766 760 744 732 735 736 733 737 741 737 737 742 746 750 752 754 755 756 756 756 756 757 758 758 760 761 762 763 765 766 767 769 769 769 770 770 770 772 774 776 777 778 779 779 780 781 782 785 788 790 792 792 794 795 796 797 798 799 801 802 803 804
738 745 752 751 742 736 727 717 715 717 718 725 729 730 735 739 744 758 764 755 752 756 757 760 766 763 746 732 733 734 734 737 738 737 740 745 749 752 753 755 756 757 757 757 758 759 760 760 761 763 764 765 766 767 769 770 771 772 773 773 774 774 775 777 776 776 777 779 782 783 783 785 787 790 791 791 792 794 795 797 797 798 799 800 802 802
742 747 754 754 742 732 724 717 714 713 718 730 731 727 732 735 735 742 746 746 751 754 753 760 768 763 748 735 733 733 732 735 737 738 742 747 750 752 754 756 757 758 758 758 759 759 760 762 763 764 766 767 768 769 771 772 773 775 775 776 777 777 777 777 777 777 777 779 782 784 784 785 787 789 790 790 791 792 795 797 798 798 799 800 801 801
750 749 753 760 758 750 741 733 726 720 723 732 734 731 731 732 732 735 736 742 752 753 753 762 766 758 746 737 734 734 733 734 736 736 741 748 751 753 755 757 758 759 759 760 760 760 761 762 763 765 767 768 770 772 773 774 775 776 777 778 778 779 779 779 779 779 779 780 782 784 785 786 788 789 790 790 790 791 793 795 798 799 800 800 801 801
751 751 752 762 769 766 758 749 741 737 734 734 736 735 733 733 735 738 743 754 761 754 751 758 761 754 746 739 738 738 737 738 738 737 740 746 750 753 756 758 760 760 761 762 762 763 763 763 764 765 767 769 770 772 773 775 777 778 779 780 780 780 780 780 780 780 780 781 782 783 785 786 788 789 789 789 790 791 792 793 795 798 799 799 799 800
752 754 753 758 761 759 754 745 736 738 742 743 741 738 735 735 736 740 750 760 760 757 757 754 752 753 750 743 741 743 743 744 743 742 743 745 750 754 756 759 760 760 762 763 764 765 766 766 767 767 769 769 770 772 773 775 777 778 779 780 781 781 780 780 780 781 781 782 782 784 785 786 787 787 787 788 789 790 790 791 793 797 798 797 796 796
757 759 755 755 755 750 746 742 737 739 743 744 742 740 737 736 737 744 754 755 752 759 764 752 748 757 756 747 745 746 745 746 747 746 747 749 751 754 757 758 759 760 762 763 765 767 768 769 769 770 771 771 772 773 774 776 777 778 779 780 781 781 781 781 781 781 782 782 783 784 784 785 786 786 787 787 788 789 789 789 791 794 795 795 793 792
758 762 755 753 753 747 743 742 740 741 742 740 740 741 740 740 741 745 749 749 750 759 760 751 751 758 754 747 747 746 745 746 746 746 748 750 751 752 755 758 758 759 761 763 766 768 769 771 772 771 772 772 773 774 775 776 778 779 780 780 781 781 782 782 782 782 782 783 783 784 785 785 786 786 786 786 787 787 788 788 789 790 791 791 790 789
756 761 755 753 754 749 745 743 741 742 744 743 741 740 740 741 743 743 744 744 748 752 751 749 753 754 749 746 745 744 746 747 747 746 747 748 750 750 754 757 758 757 758 760 764 767 770 772 773 774 774 774 774 775 776 777 778 779 780 780 781 781 781 782 782 782 783 783 783 784 784 785 785 785 786 786 786 787 787 787 788 789 789 788 787 787
759 762 756 756 762 758 752 747 745 745 746 746 744 741 742 744 744 744 745 745 747 751 750 751 756 755 748 745 744 744 746 748 748 748 747 747 748 749 752 755 756 757 756 757 762 766 769 772 774 775 776 776 777 777 777 778 778 779 780 781 781 782 782 782 782 783 783 783 783 784 784 784 784 785 785 785 786 787 787 787 787 787 787 786 786 787
760 764 759 762 770 766 756 752 749 746 747 750 750 749 751 752 750 747 746 746 749 754 755 757 761 758 748 746 747 746 747 748 747 746 747 747 746 746 749 752 755 757 757 757 760 764 768 771 774 776 777 777 778 778 779 779 779 779 781 781 781 782 782 782 782 783 783 783 783 783 783 784 784 784 784 785 785 786 786 787 787 786 786 785 785 786
758 763 764 767 774 770 759 754 753 754 761 763 755 751 753 753 751 750 747 745 746 751 756 759 758 752 747 748 750 749 751 753 749 746 748 749 748 748 748 749 752 755 756 757 760 764 766 769 773 776 778 778 778 778 779 779 779 780 781 781 781 781 782 782 782 782 783 783 783 783 783 783 783 783 784 784 784 785 786 786 787 786 786 785 785 785
757 762 764 766 773 774 764 759 761 769 775 767 749 744 749 751 751 754 754 751 750 749 750 750 748 746 749 753 754 754 757 758 754 752 751 749 751 753 751 750 751 753 755 757 760 764 767 769 773 777 780 780 780 780 780 780 780 781 781 781 781 781 781 782 781 782 782 782 783 783 783 783 782 782 783 783 783 784 785 786 786 786 786 785 785 785
756 761 763 765 770 772 766 767 776 778 769 754 742 741 747 749 750 755 757 755 753 752 752 751 749 749 752 754 754 755 757 758 757 756 754 751 753 757 756 753 753 757 759 760 763 767 769 772 775 778 780 781 781 781 781 780 780 781 781 781 781 781 781 781 781 781 781 781 782 782 782 782 782 782 782 782 783 783 784 784 784 785 785 785 785 784
754 759 764 767 770 772 772 774 778 771 754 744 744 746 750 753 755 760 763 760 756 758 760 758 754 754 755 755 754 755 756 758 758 758 757 757 758 761 761 757 754 757 760 762 766 770 772 774 777 778 780 782 782 781 780 780 780 781 780 780 780 781 781 781 781 780 780 780 781 781 781 780 781 781 781 782 782 782 783 783 782 783 783 783 783 783
752 759 766 771 772 773 775 773 769 763 756 753 757 759 761 762 762 765 770 767 760 759 762 762 762 761 760 758 758 760 761 762 764 763 762 762 762 763 765 762 758 761 763 765 768 771 773 776 778 778 781 782 782 782 781 780 781 780 780 780 780 780 780 780 780 779 779 780 780 779 780 779 779 780 780 780 781 781 781 781 781 781 781 781 781 781
749 757 764 770 771 770 774 775 771 770 770 768 768 767 766 766 766 768 773 771 764 761 764 768 770 770 768 764 764 765 767 770 772 772 769 767 765 765 767 766 764 766 768 769 770 772 774 777 777 778 780 780 781 782 782 781 781 780 780 780 779 779 779 779 779 779 779 779 779 779 779 779 779 779 779 779 779 779 779 779 779 779 779 779 779 779
747 752 757 765 770 771 775 780 778 776 776 775 773 769 767 768 768 769 774 776 771 770 771 772 774 776 774 772 771 771 773 776 778 777 775 772 770 770 770 769 768 769 771 771 772 774 775 776 777 778 780 780 781 781 781 781 781 780 779 779 778 778 778 778 778 778 778 778 778 778 778 778 778 778 778 778 778 778 778 778 778 778 778 778 778 778
754 756 759 766 770 771 775 778 773 773 780 780 774 771 771 771 770 774 782 784 779 776 776 775 776 777 776 777 777 776 778 780 780 779 777 775 774 773 772 772 771 772 772 773 774 775 775 776 777 779 780 780 780 779 780 780 780 779 778 778 778 777 777 778 778 777 777 777 777 777 777 777 777 777 777 777 777 777 777 777 777 777 777 777 777 777
766 766 764 766 768 767 773 776 770 773 787 787 778 775 774 772 775 783 789 789 784 780 778 778 779 779 778 779 780 779 779 780 780 779 777 775 775 775 775 775 775 774 774 775 775 776 776 776 777 778 779 779 779 779 779 778 778 777 777 776 776 776 776 776 776 776 776 776 775 776 775 775 775 775 775 775 775 775 775 775 775 776 776 776 776 776
773 775 771 770 771 769 773 777 772 776 791 792 782 777 777 779 788 793 790 787 785 781 780 780 781 781 780 781 781 781 781 780 780 779 778 777 776 776 776 776 776 777 777 776 776 777 777 777 777 777 777 777 777 777 776 776 776 776 775 775 775 775 775 775 775 774 774 773 773 774 773 773 773 773 773 773 773 773 773 773 774 774 774 775 775 775
771 778 777 773 774 776 780 784 785 788 794 790 783 781 783 787 793 792 788 785 784 782 782 782 782 781 782 782 782 782 782 781 781 780 779 779 778 777 777 776 776 777 777 777 777 777 776 775 776 776 776 776 776 775 774 774 774 773 774 774 773 773 773 773 773 772 771 771 771 771 771 771 771 771 771 771 771 771 771 771 771 772 772 773 774 773
770 776 779 776 778 784 787 788 791 794 790 783 782 785 787 788 788 787 787 786 784 782 782 781 781 782 782 782 782 782 782 782 781 780 779 779 778 777 777 776 776 775 775 776 776 775 774 773 773 773 774 774 774 774 773 773 772 771 771 772 772 772 772 771 770 770 769 769 769 769 769 769 769 769 769 769 769 769 768 768 768 769 770 771 772 772
774 774 778 778 780 784 784 781 783 784 781 779 783 784 784 785 785 784 785 784 782 782 782 781 782 783 782 782 782 782 782 781 780 779 778 777 776 776 775 774 774 773 773 773 773 772 772 771 770 770 770 770 770 771 770 770 770 770 769 770 770 770 770 769 768 767 767 767 766 766 767 766 767 767 767 767 767 767 766 766 766 766 767 769 769 770
777 778 779 780 780 780 781 778 777 778 778 779 782 782 782 784 784 783 784 783 783 784 784 784 784 784 784 784 783 782 783 781 780 778 777 775 774 773 773 772 771 770 770 769 770 770 769 769 768 768 768 768 768 769 768 768 768 768 768 768 769 768 768 767 766 765 765 765 765 765 765 765 765 765 765 765 765 765 765 764 764 764 765 766 767 769
782 785 784 783 784 786 786 781 778 781 784 783 783 783 782 783 783 783 784 785 785 786 786 786 785 785 784 784 783 782 781 780 779 777 775 774 773 771 770 770 768 768 767 766 766 767 767 766 766 765 766 767 767 768 768 767 767 767 767 767 766 766 765 765 764 764 764 764 763 763 763 763 762 763 763 763 763 763 763 762 762 763 764 765 766 768
785 790 788 786 786 789 788 784 783 787 788 786 786 786 784 784 785 785 786 787 787 788 787 786 786 785 784 783 782 781 779 778 778 776 774 773 771 769 768 767 766 765 765 764 764 764 764 763 763 763 764 765 766 767 767 767 767 766 765 765 764 764 763 763 763 762 762 762 762 761 761 761 760 760 761 761 761 760 760 761 761 762 763 764 765 767
785 790 791 791 792 790 788 787 790 792 790 787 786 786 786 787 788 788 789 789 789 789 788 787 786 786 784 783 783 781 780 779 778 776 775 773 772 770 768 766 765 764 763 762 762 762 762 762 762 763 764 764 765 766 766 765 765 764 763 762 762 762 762 762 761 760 760 760 760 760 760 759 759 759 759 758 758 758 759 760 760 761 763 764 765 766
791 794 795 797 800 798 794 793 794 795 793 791 790 789 789 790 790 789 790 790 790 790 790 788 788 787 785 784 783 782 780 779 778 777 775 773 771 770 769 767 765 764 762 761 760 760 761 761 762 762 763 764 764 764 763 763 762 761 760 760 760 760 761 760 760 759 759 759 758 758 758 757 757 757 757 756 756 757 758 760 761 762 763 764 765 766
795 798 798 800 802 801 797 795 795 796 796 794 792 792 791 790 789 789 790 790 790 790 789 789 788 786 785 784 783 781 779 777 776 775 774 772 771 770 768 767 765 763 762 761 760 760 760 761 761 761 761 761 761 761 760 759 759 759 759 759 760 760 760 759 759 759 758 758 757 756 756 756 755 755 754 754 755 756 757 759 762 764 765 765 766 768